SL-12 DEB, 44560

Orbit data source: Space-Track

SL-12 DEB, 44560 is space debris in HEO originally from a launch on Thu, 02 Sep 2010 UTC launched from the Tyuratam Missile And Space Complex (TTMTR). Debris objects in space refer to the collection of defunct objects orbiting the Earth. Examples of debris include non-operational satellites, rocket bodies, and fragments generated from explosions, collisions, or faulty payload assembly.

Loading next visibility...
Identifier
44560, 2010-041AF
Orbit
HEO
Country
Flag of CISCIS
Related business
Manufacturer
RKKE
Mission
Spacecraft
Bus & Motor
Unknown
Mass
Unknown
Launch date (UTC)
2010-09-02 (16 years ago)
Launch vehicle
Unknown
Launch site
Tyuratam Missile And Space Complex (TTMTR)
Object type
Payload
Rocket body
Debris
Shape & HBR
Unknown shape, 0.7 m
Radar Cross Section
Medium (>0.1 m² and <1 m²)

Expand to show TLE details & history
Last TLE update: 2 days ago

TLE from 2 days ago
0 SL-12 DEB
1 44560U 10041AF  26134.15143814 -.00000260  00000-0 -71113-3 0  9994
2 44560  65.3169  43.2240 5481757 268.5765  31.4028  4.57480924109126
Epoch: 2026-05-14T03:38Z
TLE epoch observation values (Epoch: 2026-05-14T03:38:04.255Z)
Latitude
-0.00004°
Longitude
116.8112°
Altitude
4,511.83 km
Speed
6.871 km/s
True Right ascension
02h 52m 55s
True Declination
0° 00' 00"
Sunlit
Object was in daylight at epoch
Visualization orbit readout
Latitude
Unknown
Longitude
Unknown
Altitude
Unknown
Speed
Unknown
Apparent Right ascension
Unknown
Apparent Declination
Unknown
Sunlit
N/A
Visualization observer readout
Local Sidereal Time
16:52:33
Azimuth
Unknown
Elevation
Unknown
Doppler factor
Unknown
Orbital elements
Apogee altitude
17,350.558 km
Perigee altitude
546.917 km
Semi-major axis
15,326.875 km
Eccentricity
0.54818
Inclination
65.3169°
RAAN
43.224°
Arg. of periapsis
268.5765°
True anomaly
91.53824°
Mean anomaly
31.4028°
Eccentric anomaly
58.05414°
Mean motion
1.14383 °/min
Orbital period
314.73 mins
BSTAR
-0.00071113
Loading maneuver chart data...
Computing Atmospheric mass density...
Loading historical data...
Loading historical data...
Loading historical data...
Loading historical data...
Loading historical data...
Loading historical data...
Loading historical data...

Documentation

Showing up to 5 results
|